This is the latest recevied weather packets stored in our database for station/object K1RFS. If no packets are shown the sender has not sent any weather packets the latest 10 day(s).
| Time | Temp. | Humidity | Pressure | Rain* | Wind** | Luminosity | Snow |
|---|---|---|---|---|---|---|---|
| 1788150797 | 17.22° C | 71% | 1003.6 hPa | 0 mm | - | 0 W/m² | - |
| 1788150492 | 17.78° C | 71% | 1003.4 hPa | 0 mm | - | 0 W/m² | - |
| 1788150186 | 17.78° C | 71% | 1003.3 hPa | 0 mm | - | 0 W/m² | - |
| 1788149882 | 17.78° C | 70% | 1003.6 hPa | 0 mm | - | 0 W/m² | - |
| 1788149581 | 17.78° C | 70% | 1003.6 hPa | 0 mm | - | 0 W/m² | - |
| 1788149276 | 17.78° C | 70% | 1003.6 hPa | 0 mm | - | 0 W/m² | - |
| 1788148975 | 17.78° C | 69% | 1003.7 hPa | 0 mm | - | 0 W/m² | - |
| 1788148674 | 18.33° C | 69% | 1003.6 hPa | 0 mm | - | 0 W/m² | - |
| 1788148373 | 18.33° C | 68% | 1003.6 hPa | 0 mm | - | 0 W/m² | - |
| 1788148072 | 18.33° C | 68% | 1003.6 hPa | 0 mm | - | 0 W/m² | - |
| 1788147768 | 17.78° C | 69% | 1003.4 hPa | 0 mm | - | 0 W/m² | - |
| 1788147463 | 17.78° C | 70% | 1003.3 hPa | 0 mm | - | 0 W/m² | - |
| 1788147163 | 18.33° C | 70% | 1003.6 hPa | 0 mm | - | 0 W/m² | - |
| 1788146858 | 18.89° C | 69% | 1003.6 hPa | 0 mm | - | 0 W/m² | - |
| 1788146553 | 18.89° C | 67% | 1003.4 hPa | 0 mm | - | 0 W/m² | - |
| 1788146249 | 19.44° C | 66% | 1003.3 hPa | 0 mm | - | 0 W/m² | - |
| 1788145948 | 18.89° C | 66% | 1003.1 hPa | 0 mm | - | 0 W/m² | - |
| 1788145648 | 19.44° C | 66% | 1003 hPa | 0 mm | - | 0 W/m² | - |
| 1788145347 | 19.44° C | 66% | 1003.1 hPa | 0 mm | - | 0 W/m² | - |
| 1788145046 | 19.44° C | 65% | 1003 hPa | 0 mm | - | 0 W/m² | - |
| 1788144740 | 19.44° C | 65% | 1003.1 hPa | 0 mm | - | 0 W/m² | - |
| 1788144437 | 20° C | 64% | 1003.2 hPa | 0 mm | - | 0 W/m² | - |
| 1788144135 | 20.56° C | 62% | 1003 hPa | 0 mm | - | 0 W/m² | - |
| 1788143834 | 20.56° C | 58% | 1003 hPa | 0 mm | - | 0 W/m² | - |
| 1788143527 | 21.11° C | 57% | 1002.9 hPa | 0 mm | - | 0 W/m² | - |
* Rain latest hour (hover to see other rain measurements)
** Current wind speed in m/s (hover to see current wind gust speed)